| time (UTC) | temp C | wind direction | speed KPH | gust KPH | rain 1hr cm | rain 24hr cm | rain mn cm | humidity % | barometer mb |
| 20260906182400 | 37 | 72 | 3.2 | 9.7 | 0.00 | 0.00 | 0.00 | 35 | 1016.0 |
| 20260906181855 | 37 | 303 | 3.2 | 17.7 | 0.00 | 0.00 | 0.00 | 35 | 1016.0 |
| 20260906181352 | 37 | 141 | 0.0 | 9.7 | 0.00 | 0.00 | 0.00 | 36 | 1016.0 |
| 20260906180847 | 37 | 99 | 1.6 | 16.1 | 0.00 | 0.00 | 0.00 | 36 | 1016.0 |
| 20260906180342 | 38 | 111 | 3.2 | 9.7 | 0.00 | 0.00 | 0.00 | 34 | 1016.1 |
| 20260906175839 | 38 | 127 | 6.4 | 6.4 | 0.00 | 0.00 | 0.00 | 33 | 1016.1 |
| 20260906175334 | 37 | 325 | 3.2 | 11.3 | 0.00 | 0.00 | 0.00 | 35 | 1016.4 |
| 20260906174834 | 37 | 127 | 9.7 | 14.5 | 0.00 | 0.00 | 0.00 | 36 | 1016.3 |
| 20260906174333 | 37 | 252 | 1.6 | 8.0 | 0.00 | 0.00 | 0.00 | 36 | 1016.4 |
| 20260906173828 | 38 | 169 | 1.6 | 11.3 | 0.00 | 0.00 | 0.00 | 34 | 1016.7 |
| 20260906173324 | 38 | 138 | 8.0 | 12.9 | 0.00 | 0.00 | 0.00 | 34 | 1017.0 |
| 20260906172823 | 37 | 223 | 3.2 | 6.4 | 0.00 | 0.00 | 0.00 | 36 | 1017.0 |
| 20260906172319 | 37 | 290 | 4.8 | 4.8 | 0.00 | 0.00 | 0.00 | 37 | 1017.2 |
| 20260906171813 | 37 | 139 | 9.7 | 17.7 | 0.00 | 0.00 | 0.00 | 36 | 1017.0 |
| 20260906171308 | 36 | 108 | 4.8 | 11.3 | 0.00 | 0.00 | 0.00 | 38 | 1017.0 |
| 20260906170804 | 36 | 156 | 3.2 | 4.8 | 0.00 | 0.00 | 0.00 | 38 | 1017.3 |
| 20260906170301 | 36 | 176 | 3.2 | 8.0 | 0.00 | 0.00 | 0.00 | 38 | 1017.3 |
| 20260906165756 | 38 | 328 | 3.2 | 9.7 | 0.00 | 0.00 | 0.00 | 36 | 1017.3 |
| 20260906165256 | 36 | 315 | 3.2 | 9.7 | 0.00 | 0.00 | 0.00 | 38 | 1017.5 |
| 20260906164755 | 37 | 234 | 3.2 | 4.8 | 0.00 | 0.00 | 0.00 | 37 | 1017.6 |
| 20260906164249 | 36 | 322 | 3.2 | 4.8 | 0.00 | 0.00 | 0.00 | 37 | 1017.7 |
| 20260906163746 | 36 | 342 | 3.2 | 8.0 | 0.00 | 0.00 | 0.00 | 38 | 1017.6 |
| 20260906163242 | 36 | 170 | 3.2 | 6.4 | 0.00 | 0.00 | 0.00 | 38 | 1017.8 |
| 20260906162739 | 37 | 162 | 6.4 | 6.4 | 0.00 | 0.00 | 0.00 | 38 | 1017.8 |
| 20260906162233 | 37 | 138 | 4.8 | 8.0 | 0.00 | 0.00 | 0.00 | 38 | 1017.8 |
| 20260906161733 | 36 | 293 | 3.2 | 6.4 | 0.00 | 0.00 | 0.00 | 39 | 1017.8 |
| 20260906161232 | 36 | 246 | 4.8 | 4.8 | 0.00 | 0.00 | 0.00 | 40 | 1017.9 |
| 20260906160732 | 35 | 145 | 9.7 | 9.7 | 0.00 | 0.00 | 0.00 | 42 | 1017.6 |
| 20260906160231 | 36 | 124 | 4.8 | 9.7 | 0.00 | 0.00 | 0.00 | 40 | 1018.0 |
| 20260906155729 | 35 | 254 | 0.0 | 6.4 | 0.00 | 0.00 | 0.00 | 41 | 1017.8 |
| 20260906155224 | 35 | 359 | 1.6 | 6.4 | 0.00 | 0.00 | 0.00 | 42 | 1017.7 |
| 20260906154719 | 35 | 154 | 0.0 | 3.2 | 0.00 | 0.00 | 0.00 | 41 | 1017.7 |
| 20260906154214 | 35 | 16 | 1.6 | 4.8 | 0.00 | 0.00 | 0.00 | 43 | 1017.9 |
| 20260906153712 | 34 | 154 | 0.0 | 6.4 | 0.00 | 0.00 | 0.00 | 45 | 1017.8 |
| 20260906153207 | 35 | 243 | 3.2 | 6.4 | 0.00 | 0.00 | 0.00 | 45 | 1017.9 |
| 20260906152702 | 35 | 144 | 3.2 | 6.4 | 0.00 | 0.00 | 0.00 | 45 | 1017.8 |
| 20260906152156 | 35 | 165 | 4.8 | 6.4 | 0.00 | 0.00 | 0.00 | 46 | 1017.7 |
| 20260906151651 | 33 | 0 | 1.6 | 8.0 | 0.00 | 0.00 | 0.00 | 49 | 1017.7 |
| 20260906151147 | 33 | 0 | 0.0 | 8.0 | 0.00 | 0.00 | 0.00 | 49 | 1017.7 |
| 20260906150642 | 33 | 218 | 3.2 | 6.4 | 0.00 | 0.00 | 0.00 | 49 | 1017.7 |
| 20260906150137 | 33 | 27 | 1.6 | 4.8 | 0.00 | 0.00 | 0.00 | 50 | 1017.6 |
| 20260906145636 | 32 | 202 | 3.2 | 6.4 | 0.00 | 0.00 | 0.00 | 50 | 1017.8 |
| 20260906145131 | 32 | 10 | 3.2 | 8.0 | 0.00 | 0.00 | 0.00 | 52 | 1017.7 |
| 20260906144625 | 32 | 253 | 3.2 | 4.8 | 0.00 | 0.00 | 0.00 | 51 | 1017.8 |
| 20260906144120 | 32 | 234 | 4.8 | 4.8 | 0.00 | 0.00 | 0.00 | 50 | 1017.8 |
| 20260906143620 | 32 | 122 | 3.2 | 6.4 | 0.00 | 0.00 | 0.00 | 52 | 1017.8 |
| 20260906143117 | 32 | 226 | 1.6 | 3.2 | 0.00 | 0.00 | 0.00 | 53 | 1017.7 |
| 20260906142616 | 31 | 320 | 1.6 | 4.8 | 0.00 | 0.00 | 0.00 | 55 | 1017.6 |
| 20260906142112 | 31 | 194 | 0.0 | 4.8 | 0.00 | 0.00 | 0.00 | 55 | 1017.9 |
| 20260906141610 | 31 | 25 | 0.0 | 3.2 | 0.00 | 0.00 | 0.00 | 53 | 1017.8 |
| 20260906141106 | 31 | 100 | 3.2 | 3.2 | 0.00 | 0.00 | 0.00 | 54 | 1017.8 |
| 20260906140605 | 30 | 173 | 1.6 | 3.2 | 0.00 | 0.00 | 0.00 | 55 | 1017.8 |
| 20260906140100 | 29 | 85 | 3.2 | 3.2 | 0.00 | 0.00 | 0.00 | 58 | 1017.6 |
| 20260906135557 | 29 | 193 | 0.0 | 1.6 | 0.00 | 0.00 | 0.00 | 60 | 1017.6 |
| 20260906135053 | 28 | 211 | 1.6 | 4.8 | 0.00 | 0.00 | 0.00 | 60 | 1017.5 |
| 20260906134548 | 28 | 256 | 0.0 | 4.8 | 0.00 | 0.00 | 0.00 | 61 | 1017.5 |
| 20260906134043 | 28 | 208 | 3.2 | 4.8 | 0.00 | 0.00 | 0.00 | 62 | 1017.3 |
| 20260906133539 | 28 | 207 | 1.6 | 4.8 | 0.00 | 0.00 | 0.00 | 61 | 1017.2 |
| 20260906133034 | 28 | 165 | 1.6 | 3.2 | 0.00 | 0.00 | 0.00 | 62 | 1017.2 |
| 20260906132529 | 27 | 220 | 3.2 | 4.8 | 0.00 | 0.00 | 0.00 | 64 | 1017.2 |
| 20260906132025 | 27 | 200 | 1.6 | 3.2 | 0.00 | 0.00 | 0.00 | 65 | 1017.1 |
| 20260906131520 | 27 | 246 | 0.0 | 1.6 | 0.00 | 0.00 | 0.00 | 66 | 1017.1 |
| 20260906131016 | 26 | 246 | 0.0 | 1.6 | 0.00 | 0.00 | 0.00 | 68 | 1017.1 |
| 20260906130515 | 26 | 232 | 0.0 | 3.2 | 0.00 | 0.00 | 0.00 | 68 | 1017.0 |
| 20260906130010 | 26 | 260 | 1.6 | 3.2 | 0.00 | 0.00 | 0.00 | 68 | 1017.1 |
| 20260906125508 | 26 | 232 | 1.6 | 3.2 | 0.00 | 0.00 | 0.00 | 68 | 1017.2 |
| 20260906125007 | 26 | 273 | 1.6 | 3.2 | 0.00 | 0.00 | 0.00 | 69 | 1017.2 |
| 20260906124503 | 25 | 232 | 0.0 | 1.6 | 0.00 | 0.00 | 0.00 | 70 | 1017.0 |
| 20260906123957 | 25 | 353 | 0.0 | 3.2 | 0.00 | 0.00 | 0.00 | 72 | 1016.9 |
| 20260906123456 | 24 | 253 | 0.0 | 0.0 | 0.00 | 0.00 | 0.00 | 74 | 1016.8 |
| 20260906122956 | 24 | 217 | 1.6 | 3.2 | 0.00 | 0.00 | 0.00 | 75 | 1016.7 |
| 20260906122451 | 23 | 252 | 0.0 | 1.6 | 0.00 | 0.00 | 0.00 | 75 | 1016.8 |
| 20260906121947 | 23 | 193 | 0.0 | 1.6 | 0.00 | 0.00 | 0.00 | 76 | 1016.9 |
| 20260906121443 | 23 | 218 | 0.0 | 0.0 | 0.00 | 0.00 | 0.00 | 76 | 1016.7 |
| 20260906120940 | 23 | 212 | 0.0 | 0.0 | 0.00 | 0.00 | 0.00 | 75 | 1016.7 |
| 20260906120435 | 24 | 202 | 0.0 | 0.0 | 0.00 | 0.00 | 0.00 | 74 | 1016.5 |
| 20260906115931 | 24 | 242 | 0.0 | 1.6 | 0.00 | 0.00 | 0.00 | 75 | 1016.6 |
| 20260906115426 | 23 | 227 | 0.0 | 1.6 | 0.00 | 0.00 | 0.00 | 75 | 1016.6 |
| 20260906114921 | 23 | 306 | 0.0 | 1.6 | 0.00 | 0.00 | 0.00 | 77 | 1016.4 |
| 20260906114420 | 23 | 230 | 0.0 | 1.6 | 0.00 | 0.00 | 0.00 | 77 | 1016.5 |
| 20260906113916 | 23 | 229 | 0.0 | 1.6 | 0.00 | 0.00 | 0.00 | 76 | 1016.4 |
| 20260906113415 | 23 | 242 | 0.0 | 0.0 | 0.00 | 0.00 | 0.00 | 75 | 1016.5 |
| 20260906112911 | 23 | 315 | 0.0 | 0.0 | 0.00 | 0.00 | 0.00 | 74 | 1016.4 |
| 20260906112406 | 23 | 322 | 0.0 | 0.0 | 0.00 | 0.00 | 0.00 | 76 | 1016.6 |
| 20260906111901 | 23 | 217 | 0.0 | 0.0 | 0.00 | 0.00 | 0.00 | 77 | 1016.5 |
| 20260906111401 | 23 | 326 | 0.0 | 0.0 | 0.00 | 0.00 | 0.00 | 76 | 1016.4 |
| 20260906110856 | 23 | 344 | 0.0 | 1.6 | 0.00 | 0.00 | 0.00 | 77 | 1016.4 |
| 20260906110351 | 23 | 255 | 0.0 | 0.0 | 0.00 | 0.00 | 0.00 | 76 | 1016.3 |
| 20260906105850 | 23 | 217 | 0.0 | 0.0 | 0.00 | 0.00 | 0.00 | 76 | 1016.4 |
| 20260906105346 | 24 | 286 | 0.0 | 1.6 | 0.00 | 0.00 | 0.00 | 74 | 1016.2 |
| 20260906104842 | 24 | 288 | 1.6 | 1.6 | 0.00 | 0.00 | 0.00 | 74 | 1016.2 |
| 20260906104340 | 24 | 279 | 0.0 | 1.6 | 0.00 | 0.00 | 0.00 | 74 | 1016.3 |
| 20260906103839 | 24 | 328 | 0.0 | 1.6 | 0.00 | 0.00 | 0.00 | 74 | 1016.2 |
| 20260906103337 | 24 | 329 | 0.0 | 1.6 | 0.00 | 0.00 | 0.00 | 75 | 1016.2 |
| 20260906102834 | 23 | 281 | 0.0 | 1.6 | 0.00 | 0.00 | 0.00 | 75 | 1016.2 |
| 20260906102332 | 24 | 177 | 1.6 | 3.2 | 0.00 | 0.00 | 0.00 | 75 | 1016.1 |
| 20260906101828 | 23 | 205 | 0.0 | 1.6 | 0.00 | 0.00 | 0.00 | 76 | 1016.3 |
| 20260906101323 | 23 | 196 | 0.0 | 3.2 | 0.00 | 0.00 | 0.00 | 78 | 1016.1 |
| 20260906100819 | 23 | 184 | 0.0 | 3.2 | 0.00 | 0.00 | 0.00 | 79 | 1016.1 |
| 20260906100317 | 23 | 170 | 1.6 | 1.6 | 0.00 | 0.00 | 0.00 | 78 | 1016.2 |
| 20260906095813 | 23 | 0 | 0.0 | 1.6 | 0.00 | 0.00 | 0.00 | 79 | 1016.2 |
| 20260906095308 | 23 | 154 | 0.0 | 1.6 | 0.00 | 0.00 | 0.00 | 79 | 1016.2 |
| 20260906094807 | 23 | 173 | 0.0 | 0.0 | 0.00 | 0.00 | 0.00 | 78 | 1016.0 |
| 20260906094302 | 24 | 157 | 0.0 | 0.0 | 0.00 | 0.00 | 0.00 | 78 | 1016.1 |
| 20260906093759 | 24 | 205 | 0.0 | 1.6 | 0.00 | 0.00 | 0.00 | 77 | 1016.2 |
| 20260906093254 | 25 | 0 | 0.0 | 1.6 | 0.00 | 0.00 | 0.00 | 76 | 1016.0 |
| 20260906092749 | 25 | 56 | 1.6 | 3.2 | 0.00 | 0.00 | 0.00 | 76 | 1016.0 |
| 20260906092243 | 25 | 131 | 3.2 | 4.8 | 0.00 | 0.00 | 0.00 | 74 | 1016.0 |
| 20260906091739 | 25 | 196 | 1.6 | 4.8 | 0.00 | 0.00 | 0.00 | 73 | 1015.9 |
| 20260906091235 | 25 | 72 | 0.0 | 3.2 | 0.00 | 0.00 | 0.00 | 70 | 1015.8 |
| 20260906090732 | 26 | 4 | 3.2 | 3.2 | 0.00 | 0.00 | 0.00 | 70 | 1015.8 |
| 20260906090231 | 26 | 336 | 3.2 | 3.2 | 0.00 | 0.00 | 0.00 | 69 | 1015.8 |
| 20260906085730 | 26 | 271 | 3.2 | 4.8 | 0.00 | 0.00 | 0.00 | 67 | 1015.6 |
| 20260906085229 | 26 | 337 | 3.2 | 4.8 | 0.00 | 0.00 | 0.00 | 66 | 1015.5 |
| 20260906084724 | 26 | 271 | 3.2 | 3.2 | 0.00 | 0.00 | 0.00 | 67 | 1015.5 |
| 20260906084224 | 26 | 295 | 0.0 | 4.8 | 0.00 | 0.00 | 0.00 | 69 | 1015.6 |
| 20260906083719 | 26 | 233 | 3.2 | 3.2 | 0.00 | 0.00 | 0.00 | 67 | 1015.5 |
| 20260906083215 | 27 | 264 | 3.2 | 3.2 | 0.00 | 0.00 | 0.00 | 65 | 1015.9 |
| 20260906082710 | 27 | 220 | 3.2 | 3.2 | 0.00 | 0.00 | 0.00 | 66 | 1015.6 |
| 20260906082205 | 27 | 166 | 0.0 | 3.2 | 0.00 | 0.00 | 0.00 | 63 | 1015.8 |
| 20260906081701 | 27 | 229 | 0.0 | 3.2 | 0.00 | 0.00 | 0.00 | 63 | 1015.7 |
| 20260906081156 | 27 | 240 | 0.0 | 3.2 | 0.00 | 0.00 | 0.00 | 64 | 1015.8 |
| 20260906080652 | 27 | 190 | 3.2 | 6.4 | 0.00 | 0.00 | 0.00 | 64 | 1015.8 |
| 20260906080148 | 27 | 157 | 3.2 | 6.4 | 0.00 | 0.00 | 0.00 | 66 | 1015.8 |
| 20260906075648 | 26 | 220 | 0.0 | 4.8 | 0.00 | 0.00 | 0.00 | 67 | 1016.1 |
| 20260906075142 | 26 | 309 | 0.0 | 3.2 | 0.00 | 0.00 | 0.00 | 71 | 1016.2 |
| 20260906074638 | 26 | 210 | 1.6 | 3.2 | 0.00 | 0.00 | 0.00 | 69 | 1016.2 |
| 20260906074136 | 27 | 123 | 6.4 | 6.4 | 0.00 | 0.00 | 0.00 | 63 | 1016.3 |
| 20260906073631 | 27 | 66 | 0.0 | 1.6 | 0.00 | 0.00 | 0.00 | 61 | 1016.3 |
| 20260906073127 | 27 | 176 | 0.0 | 3.2 | 0.00 | 0.00 | 0.00 | 62 | 1016.4 |
| 20260906072622 | 27 | 23 | 0.0 | 3.2 | 0.00 | 0.00 | 0.00 | 61 | 1016.1 |
| 20260906072118 | 27 | 293 | 0.0 | 3.2 | 0.00 | 0.00 | 0.00 | 60 | 1016.1 |
| 20260906071614 | 27 | 205 | 3.2 | 3.2 | 0.00 | 0.00 | 0.00 | 60 | 1016.1 |
| 20260906071108 | 27 | 304 | 0.0 | 0.0 | 0.00 | 0.00 | 0.00 | 60 | 1016.2 |
| 20260906070605 | 27 | 310 | 0.0 | 3.2 | 0.00 | 0.00 | 0.00 | 60 | 1015.9 |
| 20260906070100 | 27 | 291 | 0.0 | 0.0 | 0.00 | 0.00 | 0.00 | 61 | 1015.9 |
| 20260906065559 | 27 | 294 | 0.0 | 3.2 | 0.00 | 0.00 | 0.00 | 60 | 1016.0 |
| 20260906065055 | 27 | 306 | 1.6 | 3.2 | 0.00 | 0.00 | 0.00 | 60 | 1016.0 |
| 20260906064551 | 26 | 278 | 0.0 | 1.6 | 0.00 | 0.00 | 0.00 | 60 | 1016.1 |
| 20260906064046 | 26 | 217 | 0.0 | 0.0 | 0.00 | 0.00 | 0.00 | 62 | 1015.9 |
| 20260906063541 | 27 | 205 | 0.0 | 0.0 | 0.00 | 0.00 | 0.00 | 62 | 1016.1 |
| 20260906063038 | 27 | 224 | 0.0 | 0.0 | 0.00 | 0.00 | 0.00 | 60 | 1016.2 |
| 20260906062532 | 27 | 202 | 1.6 | 1.6 | 0.00 | 0.00 | 0.00 | 61 | 1016.3 |
| 20260906062026 | 27 | 235 | 0.0 | 0.0 | 0.00 | 0.00 | 0.00 | 60 | 1016.0 |
| 20260906061523 | 27 | 269 | 0.0 | 1.6 | 0.00 | 0.00 | 0.00 | 59 | 1016.1 |
| 20260906061022 | 27 | 256 | 0.0 | 1.6 | 0.00 | 0.00 | 0.00 | 59 | 1016.1 |
| 20260906060519 | 27 | 265 | 1.6 | 1.6 | 0.00 | 0.00 | 0.00 | 59 | 1015.9 |
| 20260906060016 | 27 | 256 | 0.0 | 1.6 | 0.00 | 0.00 | 0.00 | 57 | 1016.0 |
| 20260906055512 | 28 | 255 | 0.0 | 1.6 | 0.00 | 0.00 | 0.00 | 58 | 1016.2 |
| 20260906055007 | 28 | 311 | 0.0 | 1.6 | 0.00 | 0.00 | 0.00 | 58 | 1016.2 |
| 20260906054506 | 27 | 230 | 0.0 | 0.0 | 0.00 | 0.00 | 0.00 | 57 | 1016.2 |
| 20260906054002 | 27 | 269 | 0.0 | 0.0 | 0.00 | 0.00 | 0.00 | 58 | 1016.1 |
| 20260906053458 | 27 | 254 | 3.2 | 3.2 | 0.00 | 0.00 | 0.00 | 57 | 1016.1 |
| 20260906052954 | 27 | 275 | 1.6 | 1.6 | 0.00 | 0.00 | 0.00 | 58 | 1016.0 |
| 20260906052450 | 27 | 251 | 1.6 | 1.6 | 0.00 | 0.00 | 0.00 | 57 | 1016.0 |
| 20260906051946 | 27 | 104 | 0.0 | 0.0 | 0.00 | 0.00 | 0.00 | 58 | 1016.0 |
| 20260906051441 | 28 | 315 | 0.0 | 0.0 | 0.00 | 0.00 | 0.00 | 57 | 1016.1 |
| 20260906050937 | 27 | 278 | 0.0 | 1.6 | 0.00 | 0.00 | 0.00 | 56 | 1015.9 |
| 20260906050437 | 28 | 230 | 0.0 | 0.0 | 0.00 | 0.00 | 0.00 | 57 | 1015.8 |
| 20260906045936 | 28 | 326 | 0.0 | 1.6 | 0.00 | 0.00 | 0.00 | 57 | 1015.8 |
| 20260906045435 | 27 | 255 | 0.0 | 1.6 | 0.00 | 0.00 | 0.00 | 58 | 1015.9 |
| 20260906044932 | 28 | 235 | 0.0 | 0.0 | 0.00 | 0.00 | 0.00 | 55 | 1016.0 |
| 20260906044431 | 28 | 237 | 1.6 | 3.2 | 0.00 | 0.00 | 0.00 | 56 | 1015.9 |
| 20260906043927 | 28 | 297 | 0.0 | 1.6 | 0.00 | 0.00 | 0.00 | 55 | 1015.9 |
| 20260906043423 | 27 | 351 | 1.6 | 1.6 | 0.00 | 0.00 | 0.00 | 56 | 1016.1 |
| 20260906042918 | 27 | 221 | 3.2 | 3.2 | 0.00 | 0.00 | 0.00 | 58 | 1016.1 |
| 20260906042417 | 27 | 224 | 0.0 | 0.0 | 0.00 | 0.00 | 0.00 | 58 | 1016.1 |
| 20260906041912 | 27 | 242 | 0.0 | 1.6 | 0.00 | 0.00 | 0.00 | 57 | 1016.0 |
| 20260906041409 | 28 | 255 | 0.0 | 0.0 | 0.00 | 0.00 | 0.00 | 55 | 1016.1 |
| 20260906040908 | 27 | 255 | 1.6 | 1.6 | 0.00 | 0.00 | 0.00 | 57 | 1015.9 |
| 20260906040403 | 27 | 269 | 0.0 | 1.6 | 0.00 | 0.00 | 0.00 | 57 | 1015.9 |
| 20260906035859 | 27 | 250 | 1.6 | 1.6 | 0.00 | 0.00 | 0.00 | 58 | 1015.9 |
| 20260906035354 | 27 | 269 | 0.0 | 0.0 | 0.00 | 0.00 | 0.00 | 56 | 1015.8 |
| 20260906034849 | 27 | 358 | 3.2 | 3.2 | 0.00 | 0.00 | 0.00 | 57 | 1015.9 |
| 20260906034344 | 27 | 235 | 0.0 | 0.0 | 0.00 | 0.00 | 0.00 | 55 | 1015.8 |
| 20260906033840 | 27 | 251 | 1.6 | 1.6 | 0.00 | 0.00 | 0.00 | 55 | 1015.9 |
| 20260906033339 | 28 | 235 | 0.0 | 0.0 | 0.00 | 0.00 | 0.00 | 57 | 1015.8 |
| 20260906032835 | 28 | 235 | 0.0 | 0.0 | 0.00 | 0.00 | 0.00 | 57 | 1015.8 |
| 20260906032331 | 28 | 257 | 0.0 | 1.6 | 0.00 | 0.00 | 0.00 | 55 | 1015.8 |
| 20260906031826 | 28 | 255 | 0.0 | 0.0 | 0.00 | 0.00 | 0.00 | 56 | 1015.9 |
| 20260906031321 | 28 | 294 | 0.0 | 3.2 | 0.00 | 0.00 | 0.00 | 56 | 1015.9 |
| 20260906030821 | 28 | 343 | 3.2 | 3.2 | 0.00 | 0.00 | 0.00 | 55 | 1016.0 |
| 20260906030316 | 27 | 142 | 0.0 | 0.0 | 0.00 | 0.00 | 0.00 | 56 | 1015.9 |
| 20260906025811 | 28 | 229 | 1.6 | 3.2 | 0.00 | 0.00 | 0.00 | 54 | 1015.9 |
| 20260906025306 | 28 | 321 | 0.0 | 0.0 | 0.00 | 0.00 | 0.00 | 53 | 1016.0 |
| 20260906024804 | 28 | 345 | 0.0 | 1.6 | 0.00 | 0.00 | 0.00 | 53 | 1015.7 |
| 20260906024303 | 28 | 238 | 0.0 | 1.6 | 0.00 | 0.00 | 0.00 | 53 | 1015.6 |
| 20260906023759 | 28 | 230 | 0.0 | 0.0 | 0.00 | 0.00 | 0.00 | 52 | 1015.7 |
| 20260906023254 | 28 | 243 | 0.0 | 1.6 | 0.00 | 0.00 | 0.00 | 53 | 1015.4 |
| 20260906022749 | 28 | 256 | 0.0 | 1.6 | 0.00 | 0.00 | 0.00 | 53 | 1015.4 |
| 20260906022244 | 28 | 239 | 1.6 | 3.2 | 0.00 | 0.00 | 0.00 | 52 | 1015.2 |
| 20260906021741 | 28 | 235 | 0.0 | 1.6 | 0.00 | 0.00 | 0.00 | 54 | 1015.2 |
| 20260906021240 | 28 | 218 | 0.0 | 1.6 | 0.00 | 0.00 | 0.00 | 52 | 1015.0 |
| 20260906020735 | 29 | 230 | 0.0 | 1.6 | 0.00 | 0.00 | 0.00 | 53 | 1015.0 |
| 20260906020234 | 29 | 224 | 0.0 | 0.0 | 0.00 | 0.00 | 0.00 | 52 | 1015.0 |
| 20260906015729 | 29 | 228 | 1.6 | 1.6 | 0.00 | 0.00 | 0.00 | 53 | 1014.8 |
| 20260906015227 | 29 | 224 | 0.0 | 1.6 | 0.00 | 0.00 | 0.00 | 52 | 1014.7 |
| 20260906014722 | 30 | 244 | 1.6 | 1.6 | 0.00 | 0.00 | 0.00 | 53 | 1014.7 |
| 20260906014218 | 30 | 290 | 0.0 | 1.6 | 0.00 | 0.00 | 0.00 | 52 | 1014.7 |
| 20260906013714 | 30 | 230 | 0.0 | 1.6 | 0.00 | 0.00 | 0.00 | 53 | 1014.6 |
| 20260906013214 | 30 | 297 | 0.0 | 0.0 | 0.00 | 0.00 | 0.00 | 49 | 1014.7 |
| 20260906012710 | 30 | 240 | 0.0 | 1.6 | 0.00 | 0.00 | 0.00 | 51 | 1014.5 |
| 20260906012210 | 30 | 235 | 0.0 | 0.0 | 0.00 | 0.00 | 0.00 | 50 | 1014.6 |
| 20260906011706 | 30 | 237 | 0.0 | 1.6 | 0.00 | 0.00 | 0.00 | 48 | 1014.6 |
| 20260906011205 | 31 | 269 | 0.0 | 1.6 | 0.00 | 0.00 | 0.00 | 51 | 1014.5 |
| 20260906010701 | 31 | 340 | 0.0 | 1.6 | 0.00 | 0.00 | 0.00 | 48 | 1014.4 |
| 20260906010157 | 31 | 284 | 0.0 | 1.6 | 0.00 | 0.00 | 0.00 | 48 | 1014.4 |
| 20260906005656 | 31 | 290 | 0.0 | 0.0 | 0.00 | 0.00 | 0.00 | 48 | 1014.2 |
| 20260906005156 | 31 | 284 | 0.0 | 1.6 | 0.00 | 0.00 | 0.00 | 49 | 1014.4 |
| 20260906004655 | 31 | 247 | 0.0 | 1.6 | 0.00 | 0.00 | 0.00 | 48 | 1014.5 |
| 20260906004150 | 31 | 293 | 0.0 | 3.2 | 0.00 | 0.00 | 0.00 | 47 | 1014.4 |
| 20260906003645 | 31 | 309 | 0.0 | 3.2 | 0.00 | 0.00 | 0.00 | 46 | 1014.4 |
| 20260906003141 | 32 | 269 | 0.0 | 0.0 | 0.00 | 0.00 | 0.00 | 47 | 1014.3 |
| 20260906002636 | 32 | 315 | 0.0 | 1.6 | 0.00 | 0.00 | 0.00 | 45 | 1014.5 |
| 20260906002130 | 32 | 326 | 0.0 | 0.0 | 0.00 | 0.00 | 0.00 | 45 | 1014.5 |
| 20260906001626 | 32 | 326 | 0.0 | 0.0 | 0.00 | 0.00 | 0.00 | 45 | 1014.2 |
| 20260906001125 | 33 | 315 | 0.0 | 0.0 | 0.00 | 0.00 | 0.00 | 44 | 1014.3 |
| 20260906000622 | 33 | 324 | 0.0 | 1.6 | 0.00 | 0.00 | 0.00 | 43 | 1014.2 |
| 20260906000117 | 33 | 286 | 1.6 | 1.6 | 0.00 | 0.00 | 0.00 | 43 | 1014.3 |
| 20260905235615 | 33 | 217 | 0.0 | 0.0 | 0.00 | 0.00 | 0.00 | 42 | 1014.3 |
| 20260905235111 | 34 | 329 | 0.0 | 1.6 | 0.00 | 0.00 | 0.00 | 42 | 1014.3 |
| 20260905234606 | 34 | 260 | 0.0 | 1.6 | 0.00 | 0.00 | 0.00 | 41 | 1014.3 |
| 20260905234101 | 35 | 293 | 1.6 | 1.6 | 0.00 | 0.00 | 0.00 | 41 | 1014.3 |
| 20260905233601 | 35 | 249 | 0.0 | 3.2 | 0.00 | 0.00 | 0.00 | 40 | 1014.5 |
| 20260905233056 | 35 | 234 | 0.0 | 1.6 | 0.00 | 0.00 | 0.00 | 41 | 1014.4 |
| 20260905232551 | 35 | 309 | 0.0 | 0.0 | 0.00 | 0.00 | 0.00 | 39 | 1014.4 |
| 20260905232047 | 35 | 142 | 1.6 | 3.2 | 0.00 | 0.00 | 0.00 | 38 | 1014.4 |
| 20260905231542 | 35 | 339 | 0.0 | 0.0 | 0.00 | 0.00 | 0.00 | 38 | 1014.4 |
| 20260905231038 | 35 | 206 | 0.0 | 3.2 | 0.00 | 0.00 | 0.00 | 37 | 1014.2 |
| 20260905230537 | 35 | 216 | 1.6 | 4.8 | 0.00 | 0.00 | 0.00 | 37 | 1014.2 |
| 20260905230036 | 35 | 307 | 1.6 | 3.2 | 0.00 | 0.00 | 0.00 | 38 | 1014.4 |
| 20260905225531 | 35 | 200 | 0.0 | 3.2 | 0.00 | 0.00 | 0.00 | 39 | 1014.4 |
| 20260905225027 | 35 | 180 | 3.2 | 4.8 | 0.00 | 0.00 | 0.00 | 38 | 1014.3 |
| 20260905224526 | 36 | 164 | 4.8 | 6.4 | 0.00 | 0.00 | 0.00 | 39 | 1014.3 |
| 20260905224026 | 36 | 122 | 3.2 | 8.0 | 0.00 | 0.00 | 0.00 | 38 | 1014.1 |
| 20260905223524 | 35 | 229 | 1.6 | 1.6 | 0.00 | 0.00 | 0.00 | 40 | 1014.2 |
| 20260905223020 | 35 | 192 | 3.2 | 4.8 | 0.00 | 0.00 | 0.00 | 38 | 1014.1 |
| 20260905222519 | 35 | 151 | 3.2 | 4.8 | 0.00 | 0.00 | 0.00 | 42 | 1014.3 |
| 20260905222014 | 35 | 84 | 1.6 | 3.2 | 0.00 | 0.00 | 0.00 | 41 | 1014.4 |
| 20260905221511 | 35 | 230 | 3.2 | 3.2 | 0.00 | 0.00 | 0.00 | 41 | 1014.2 |
| 20260905221007 | 35 | 277 | 1.6 | 3.2 | 0.00 | 0.00 | 0.00 | 40 | 1014.3 |
| 20260905220503 | 35 | 295 | 1.6 | 3.2 | 0.00 | 0.00 | 0.00 | 40 | 1014.5 |
| 20260905220002 | 35 | 339 | 3.2 | 3.2 | 0.00 | 0.00 | 0.00 | 40 | 1014.4 |
| 20260905215458 | 36 | 310 | 3.2 | 3.2 | 0.00 | 0.00 | 0.00 | 38 | 1014.5 |
| 20260905214954 | 36 | 252 | 0.0 | 3.2 | 0.00 | 0.00 | 0.00 | 37 | 1014.4 |
| 20260905214449 | 36 | 340 | 0.0 | 1.6 | 0.00 | 0.00 | 0.00 | 36 | 1014.5 |
| 20260905213949 | 36 | 3 | 3.2 | 8.0 | 0.00 | 0.00 | 0.00 | 36 | 1014.6 |
| 20260905213445 | 37 | 283 | 3.2 | 9.7 | 0.00 | 0.00 | 0.00 | 34 | 1014.5 |
| 20260905212940 | 38 | 288 | 3.2 | 6.4 | 0.00 | 0.00 | 0.00 | 34 | 1014.5 |
| 20260905212435 | 38 | 217 | 4.8 | 4.8 | 0.00 | 0.00 | 0.00 | 34 | 1014.6 |
| 20260905211934 | 37 | 126 | 4.8 | 11.3 | 0.00 | 0.00 | 0.00 | 35 | 1014.8 |
| 20260905211430 | 38 | 314 | 6.4 | 8.0 | 0.00 | 0.00 | 0.00 | 34 | 1014.5 |
| 20260905210926 | 37 | 100 | 4.8 | 9.7 | 0.00 | 0.00 | 0.00 | 35 | 1014.9 |
| 20260905210426 | 38 | 4 | 1.6 | 3.2 | 0.00 | 0.00 | 0.00 | 34 | 1015.0 |
| 20260905205926 | 38 | 211 | 0.0 | 3.2 | 0.00 | 0.00 | 0.00 | 35 | 1015.2 |
| 20260905205421 | 36 | 142 | 4.8 | 9.7 | 0.00 | 0.00 | 0.00 | 37 | 1015.4 |
| 20260905204920 | 36 | 152 | 0.0 | 1.6 | 0.00 | 0.00 | 0.00 | 37 | 1015.0 |
| 20260905204416 | 35 | 219 | 0.0 | 3.2 | 0.00 | 0.00 | 0.00 | 38 | 1015.3 |
| 20260905203915 | 35 | 281 | 1.6 | 1.6 | 0.00 | 0.00 | 0.00 | 41 | 1015.5 |
| 20260905203410 | 35 | 17 | 1.6 | 4.8 | 0.00 | 0.00 | 0.00 | 39 | 1015.5 |
| 20260905202906 | 35 | 232 | 1.6 | 3.2 | 0.00 | 0.00 | 0.00 | 39 | 1015.5 |
| 20260905202401 | 35 | 229 | 0.0 | 1.6 | 0.00 | 0.00 | 0.00 | 39 | 1015.7 |
| 20260905201856 | 36 | 184 | 1.6 | 3.2 | 0.00 | 0.00 | 0.00 | 39 | 1015.7 |
| 20260905201351 | 36 | 8 | 1.6 | 4.8 | 0.00 | 0.00 | 0.00 | 38 | 1015.7 |
| 20260905200845 | 36 | 175 | 0.0 | 6.4 | 0.00 | 0.00 | 0.00 | 37 | 1015.7 |
| 20260905200342 | 37 | 85 | 0.0 | 3.2 | 0.00 | 0.00 | 0.00 | 37 | 1015.7 |
| 20260905195840 | 36 | 245 | 0.0 | 3.2 | 0.00 | 0.00 | 0.00 | 38 | 1015.8 |
| 20260905195335 | 36 | 125 | 1.6 | 4.8 | 0.00 | 0.00 | 0.00 | 38 | 1015.9 |
| 20260905194831 | 37 | 254 | 6.4 | 6.4 | 0.00 | 0.00 | 0.00 | 36 | 1016.0 |
| 20260905194331 | 37 | 271 | 3.2 | 12.9 | 0.00 | 0.00 | 0.00 | 37 | 1015.9 |
| 20260905193829 | 38 | 71 | 3.2 | 4.8 | 0.00 | 0.00 | 0.00 | 35 | 1016.0 |
| 20260905193324 | 38 | 348 | 8.0 | 8.0 | 0.00 | 0.00 | 0.00 | 35 | 1016.1 |
| 20260905192820 | 37 | 88 | 4.8 | 6.4 | 0.00 | 0.00 | 0.00 | 35 | 1016.1 |
| 20260905192316 | 37 | 341 | 3.2 | 3.2 | 0.00 | 0.00 | 0.00 | 36 | 1016.3 |
| 20260905191815 | 36 | 279 | 3.2 | 4.8 | 0.00 | 0.00 | 0.00 | 39 | 1016.3 |
| 20260905191314 | 36 | 208 | 1.6 | 3.2 | 0.00 | 0.00 | 0.00 | 38 | 1016.4 |
| 20260905190813 | 37 | 205 | 3.2 | 6.4 | 0.00 | 0.00 | 0.00 | 38 | 1016.4 |
| 20260905190313 | 36 | 144 | 1.6 | 9.7 | 0.00 | 0.00 | 0.00 | 38 | 1016.7 |
| 20260905185812 | 37 | 204 | 0.0 | 6.4 | 0.00 | 0.00 | 0.00 | 38 | 1016.7 |
| 20260905185307 | 37 | 338 | 3.2 | 4.8 | 0.00 | 0.00 | 0.00 | 39 | 1016.7 |
| 20260905184801 | 35 | 229 | 3.2 | 4.8 | 0.00 | 0.00 | 0.00 | 41 | 1016.9 |
| 20260905184259 | 35 | 126 | 4.8 | 4.8 | 0.00 | 0.00 | 0.00 | 39 | 1016.8 |
| 20260905183758 | 35 | 280 | 4.8 | 4.8 | 0.00 | 0.00 | 0.00 | 40 | 1016.9 |
| 20260905183254 | 35 | 58 | 0.0 | 3.2 | 0.00 | 0.00 | 0.00 | 41 | 1017.0 |
| 20260905182753 | 35 | 30 | 6.4 | 6.4 | 0.00 | 0.00 | 0.00 | 41 | 1017.0 |